Volver al catálogo

ARIANE 44L R/B

ActivoHEO
NORAD 27604·ROCKET BODY·🇫🇷 France

Lanzado Dec 17, 2002 desde Guiana Space Centre

Loading…

Próximos Pases (próximas 24 horas)

TLE

ActualizadoSource: Space-Track

Época: Sep 14, 2026, 09:17 UTC

1 27604U 02057B   26257.38744030  .00002256  00000-0  18292-2 0  9993
2 27604   7.1559 204.5555 7056365 143.1798 296.6408  2.53154212202014

Sigue ARIANE 44L R/B en tiempo real con AllMySat

Download on the App Store